Location: Doverdale
(52.2833°N, 2.2000°W)
Time: 03:20:20
(UTC+00:00)

HJ-1C - Pass Details

Date: 29 October 2020
Orbit: 429 x 444 km, 97.1° (Epoch: 27 November)

Event Time Altitude Azimuth Distance (km) Brightness Sun altitude
Exits shadow 18:22:24 30° 58° (ENE) 839 4.3 -15.4°
Drops below altitude 10° 18:25:08 10° 5° (N) 1,586 6.1 -15.8°
Sets 18:27:19 0° 355° (N) 2,462 7.2 -16.2°
